Meteopurmerend
purmerend
Purmerend - Baaienwijk



My webcam  My webcam


Onweer radar Meer informatie blitzortung!


Regen radar Meer informatie rain snow radar


Bezoek onze andere website:

CandyAppleRed WebdesignWebdesign Purmerend Candy Apple Red

MeteopurmerendBlog

Template documentation
and downloads



Het weer levert geen direct gevaar op.    Er zijn geen waarschuwingen afgegeven.

15 daagse weersverwachting Reggio Calabria (IT)

  • Overzicht
  • Per uur
  • 15 dagen
  • Extra
  • Vergelijk
  • Kaarten
  • Dagkaart
  • Meer »
  • Info
  • Statistieken
  • Directe link
    Temp 6h Neerslag Wind  
 06:55     18:38    Daglengte: 11:43 Morgen
02:00
19°
 
1
08:00
19°
 
2
14:00
26°
 
6
20:00
23°
 
4
 06:56     18:36    Daglengte: 11:40 Zaterdag 03 Okt
02:00
24°
 
5
08:00
25°
 
5
14:00
30°
 
7
20:00
27°
 
5
 06:57     18:35    Daglengte: 11:38 Zondag 04 Okt
02:00
22°
 
4
08:00
22°
 
4
14:00
25°
 
4
Locatie info
Region: Calabria
Latitude: 38.1105°N
Longitude: 15.6613°E
110 masl
Temp/Neerslag /Baro Onweer/Dauwpunt
    Temp Baro 1h Neerslag Dauwpunt Wind UV Bewolking  
 06:55     18:39    Daglengte: 11:44 Vandaag
21:00
20°
1010.2 hPa
22%
18.0°
1
Windvlaag: 0.3 m/s
37%
22:00
20°
1010.3 hPa
19%
17.8°
1
Windvlaag: 0 m/s
12%
23:00
19°
1010.2 hPa
22%
17.5°
1
Windvlaag: 0.1 m/s
45%
 06:55     18:38    Daglengte: 11:43 Morgen
00:00
19°
1009.9 hPa
24%
17.6°
1
Windvlaag: 0.3 m/s
37%
01:00
19°
1009.6 hPa
18%
17.4°
1
Windvlaag: 0.3 m/s
40%
02:00
19°
1009.5 hPa
13%
17.5°
1
Windvlaag: 0.4 m/s
61%
03:00
19°
1009.1 hPa
13%
17.5°
1
Windvlaag: 0.2 m/s
46%
04:00
19°
1008.6 hPa
14%
17.5°
1
Windvlaag: 0.2 m/s
14%
05:00
19°
1008.1 hPa
14%
16.7°
1
Windvlaag: 0.7 m/s
3%
06:00
19°
1008.0 hPa
13%
16.1°
2
Windvlaag: 0.7 m/s
2%
07:00
18°
1008.1 hPa
13%
15.9°
2
Windvlaag: 1.3 m/s
3%
08:00
19°
1008.2 hPa
13%
16.2°
2
Windvlaag: 1.3 m/s
2%
09:00
22°
1008.4 hPa
13%
16.2°
2
Windvlaag: 1.7 m/s
1%
10:00
23°
1008.8 hPa
13%
16.0°
3
Windvlaag: 2.6 m/s
0%
11:00
24°
1009.0 hPa
15%
16.3°
4
Windvlaag: 3 m/s
0%
12:00
25°
1008.7 hPa
17%
17.1°
5
Windvlaag: 3.4 m/s
1%
13:00
26°
1008.6 hPa
14%
17.1°
6
Windvlaag: 4.5 m/s
0%
14:00
26°
1008.3 hPa
16%
18.1°
6
Windvlaag: 4.8 m/s
1%
15:00
26°
1007.9 hPa
17%
18.8°
6
Windvlaag: 4.6 m/s
1%
16:00
25°
1007.9 hPa
21%
19.2°
5
Windvlaag: 4.9 m/s
3%
17:00
25°
1007.8 hPa
24%
19.6°
5
Windvlaag: 4.4 m/s
1%
18:00
24°
1007.9 hPa
24%
20.0°
4
Windvlaag: 3.9 m/s
1%
19:00
23°
1008.1 hPa
23%
19.6°
4
Windvlaag: 4.1 m/s
2%
20:00
23°
1008.6 hPa
23%
18.7°
4
Windvlaag: 4.1 m/s
3%
21:00
23°
1009.1 hPa
21%
18.1°
4
Windvlaag: 3.7 m/s
1%
22:00
23°
1009.3 hPa
20%
17.4°
4
Windvlaag: 3.6 m/s
1%
23:00
23°
1009.1 hPa
19%
16.5°
4
Windvlaag: 3.6 m/s
1%
 06:56     18:36    Daglengte: 11:40 Zaterdag 03 Okt
00:00
23°
1008.9 hPa
20%
15.9°
4
Windvlaag: 3.4 m/s
1%
01:00
23°
1008.7 hPa
17%
15.2°
4
Windvlaag: 3.8 m/s
2%
02:00
24°
1008.5 hPa
17%
15.3°
5
Windvlaag: 3.3 m/s
4%
03:00
24°
1008.1 hPa
17%
15.1°
4
Windvlaag: 3.3 m/s
5%
04:00
24°
1007.9 hPa
16%
15.4°
5
Windvlaag: 4.2 m/s
6%
05:00
24°
1007.8 hPa
16%
15.4°
5
Windvlaag: 4.6 m/s
8%
06:00
24°
1007.8 hPa
16%
15.6°
5
Windvlaag: 4.5 m/s
11%
07:00
24°
1008.0 hPa
16%
16.1°
5
Windvlaag: 4.6 m/s
11%
08:00
25°
1008.2 hPa
16%
16.3°
5
Windvlaag: 5 m/s
11%
09:00
27°
1008.6 hPa
15%
16.5°
5
Windvlaag: 5 m/s
5%
10:00
28°
1009.0 hPa
15%
17.0°
6
Windvlaag: 5.5 m/s
22%
11:00
29°
1009.0 hPa
16%
17.5°
6
Windvlaag: 7.1 m/s
23%
12:00
29°
1009.0 hPa
16%
18.8°
7
Windvlaag: 7.2 m/s
48%
13:00
30°
1008.6 hPa
15%
18.5°
6
Windvlaag: 7.4 m/s
54%
14:00
30°
1008.3 hPa
14%
17.6°
7
Windvlaag: 7.9 m/s
78%
15:00
29°
1008.1 hPa
27%
17.2°
6
Windvlaag: 7.5 m/s
73%
16:00
29°
1007.9 hPa
17%
17.4°
6
Windvlaag: 7.6 m/s
74%
17:00
28°
1007.7 hPa
23%
17.7°
6
Windvlaag: 6.8 m/s
93%
18:00
28°
1007.3 hPa
21%
17.4°
5
Windvlaag: 6.3 m/s
78%
19:00
27°
1007.7 hPa
21%
17.3°
5
Windvlaag: 5.4 m/s
82%
20:00